• In Romania
  • List of Countries
  • For 7 days
  • Water Temperature
  • Satellite Maps
  • Weather Map
  • Weather Widgets
  • user-avatar
    Login

    Hourly Weather Mendoza

    Today, 28 March, Tuesday

    Time Temperature Precipitation Wind Pressure Humidity
    00:00 +23°C° 0.9 mm 2 mps 698 mmHg 79%
    01:00 +23°C° 0 mm 2 mps 698 mmHg 80%
    02:00 +21°C° 0.3 mm 2 mps 698 mmHg 79%
    03:00 +21°C° 0.3 mm 2 mps 697 mmHg 78%
    04:00 +21°C° 0.3 mm 2 mps 697 mmHg 77%
    05:00 +21°C° 0.2 mm 2 mps 698 mmHg 75%
    06:00 +23°C° 0.2 mm 2 mps 698 mmHg 73%
    07:00 +23°C° 0.2 mm 2 mps 698 mmHg 70%
    08:00 +24°C° 0.1 mm 2 mps 698 mmHg 65%
    09:00 +26°C° 0.1 mm 2 mps 698 mmHg 59%
    10:00 +27°C° 0.1 mm 2 mps 698 mmHg 54%
    11:00 +28°C° 0 mm 2 mps 698 mmHg 51%
    12:00 +29°C° 0 mm 3 mps 698 mmHg 48%
    13:00 +30°C° 0 mm 4 mps 698 mmHg 45%
    14:00 +30°C° 0.1 mm 3 mps 697 mmHg 46%
    15:00 +30°C° 0.1 mm 3 mps 697 mmHg 46%
    16:00 +30°C° 0.1 mm 3 mps 697 mmHg 47%
    17:00 +29°C° 1.3 mm 3 mps 697 mmHg 56%
    18:00 +27°C° 1.3 mm 3 mps 697 mmHg 65%
    19:00 +26°C° 1.3 mm 3 mps 698 mmHg 75%
    20:00 +25°C° 1.3 mm 2 mps 698 mmHg 76%
    21:00 +25°C° 1.3 mm 2 mps 698 mmHg 78%
    22:00 +24°C° 1.3 mm 2 mps 698 mmHg 79%
    23:00 +24°C° 0.6 mm 2 mps 698 mmHg 78%

    Tomorrow, 29 March, Wednesday

    Time Temperature Precipitation Wind Pressure Humidity
    00:00 +23°C° 0.6 mm 2 mps 697 mmHg 78%
    01:00 +23°C° 0.6 mm 2 mps 697 mmHg 77%
    02:00 +23°C° 0.2 mm 2 mps 696 mmHg 76%
    03:00 +21°C° 0.2 mm 2 mps 696 mmHg 75%
    04:00 +21°C° 0.2 mm 2 mps 696 mmHg 74%
    05:00 +21°C° 0.2 mm 2 mps 696 mmHg 72%
    06:00 +23°C° 0.2 mm 2 mps 696 mmHg 70%
    07:00 +23°C° 0.2 mm 2 mps 696 mmHg 69%
    08:00 +24°C° 0.1 mm 2 mps 696 mmHg 65%
    09:00 +26°C° 0.1 mm 3 mps 696 mmHg 61%
    10:00 +27°C° 0.1 mm 3 mps 696 mmHg 57%
    11:00 +28°C° 0.4 mm 3 mps 695 mmHg 55%
    12:00 +29°C° 0.4 mm 3 mps 695 mmHg 53%
    13:00 +29°C° 0.4 mm 3 mps 695 mmHg 51%
    14:00 +29°C° 1.2 mm 3 mps 694 mmHg 50%
    15:00 +29°C° 1.2 mm 3 mps 694 mmHg 49%
    16:00 +29°C° 1.2 mm 3 mps 694 mmHg 49%
    17:00 +28°C° 1.2 mm 3 mps 694 mmHg 55%
    18:00 +26°C° 1.2 mm 3 mps 694 mmHg 62%
    19:00 +25°C° 1.2 mm 2 mps 695 mmHg 68%
    20:00 +24°C° 0.4 mm 3 mps 695 mmHg 67%
    21:00 +24°C° 0.4 mm 3 mps 695 mmHg 67%
    22:00 +22°C° 0.4 mm 3 mps 696 mmHg 66%
    23:00 +22°C° 0.1 mm 4 mps 696 mmHg 65%

    Day after tomorrow, 30 March, Thursday

    Time Temperature Precipitation Wind Pressure Humidity
    00:00 +22°C° 0.1 mm 4 mps 696 mmHg 65%
    01:00 +21°C° 0.1 mm 5 mps 696 mmHg 64%
    02:00 +21°C° 0 mm 5 mps 696 mmHg 66%
    03:00 +20°C° 0 mm 5 mps 696 mmHg 67%
    04:00 +20°C° 0 mm 5 mps 696 mmHg 69%
    05:00 +20°C° 0 mm 5 mps 697 mmHg 67%
    06:00 +20°C° 0 mm 4 mps 697 mmHg 65%
    07:00 +20°C° 0 mm 4 mps 697 mmHg 64%
    08:00 +21°C° 0 mm 4 mps 697 mmHg 58%
    09:00 +23°C° 0 mm 4 mps 698 mmHg 53%
    10:00 +25°C° 0 mm 4 mps 698 mmHg 48%
    11:00 +26°C° 0 mm 4 mps 697 mmHg 46%
    12:00 +26°C° 0 mm 4 mps 696 mmHg 44%
    13:00 +27°C° 0 mm 4 mps 696 mmHg 42%
    14:00 +27°C° 0 mm 3 mps 696 mmHg 44%
    15:00 +27°C° 0 mm 3 mps 695 mmHg 46%
    16:00 +26°C° 0 mm 3 mps 695 mmHg 48%
    17:00 +25°C° 0 mm 3 mps 695 mmHg 54%
    18:00 +24°C° 0 mm 2 mps 696 mmHg 60%
    19:00 +23°C° 0 mm 2 mps 696 mmHg 66%
    20:00 +21°C° 0 mm 2 mps 697 mmHg 69%
    21:00 +21°C° 0 mm 2 mps 697 mmHg 71%
    22:00 +21°C° 0 mm 2 mps 697 mmHg 74%
    23:00 +20°C° 0 mm 2 mps 697 mmHg 76%

    31 March, Friday

    Time Temperature Precipitation Wind Pressure Humidity
    00:00 +20°C° 0 mm 2 mps 696 mmHg 78%
    01:00 +19°C° 0 mm 2 mps 696 mmHg 80%
    02:00 +19°C° 0 mm 2 mps 696 mmHg 80%
    03:00 +19°C° 0 mm 2 mps 696 mmHg 80%
    04:00 +18°C° 0 mm 2 mps 696 mmHg 81%
    05:00 +19°C° 0 mm 2 mps 696 mmHg 78%
    06:00 +19°C° 0 mm 2 mps 697 mmHg 76%
    07:00 +20°C° 0 mm 2 mps 697 mmHg 73%
    08:00 +21°C° 0 mm 2 mps 697 mmHg 68%
    09:00 +23°C° 0 mm 2 mps 697 mmHg 63%
    10:00 +25°C° 0 mm 3 mps 698 mmHg 59%
    11:00 +26°C° 0 mm 3 mps 697 mmHg 57%
    12:00 +27°C° 0 mm 3 mps 697 mmHg 55%
    13:00 +28°C° 0 mm 3 mps 696 mmHg 53%
    14:00 +27°C° 0.1 mm 3 mps 696 mmHg 55%
    15:00 +27°C° 0.1 mm 2 mps 696 mmHg 58%
    16:00 +27°C° 0.1 mm 2 mps 696 mmHg 60%
    17:00 +26°C° 0.2 mm 2 mps 697 mmHg 66%
    18:00 +25°C° 0.2 mm 2 mps 697 mmHg 71%
    19:00 +24°C° 0.2 mm 2 mps 698 mmHg 76%
    20:00 +24°C° 1 mm 2 mps 698 mmHg 79%
    21:00 +23°C° 1 mm 2 mps 698 mmHg 81%
    22:00 +23°C° 1 mm 2 mps 698 mmHg 84%
    23:00 +21°C° 0.4 mm 2 mps 698 mmHg 85%

    1 April, Saturday

    Time Temperature Precipitation Wind Pressure Humidity
    00:00 +21°C° 0.4 mm 2 mps 698 mmHg 86%
    01:00 +21°C° 0.4 mm 2 mps 697 mmHg 87%
    02:00 +20°C° 0 mm 2 mps 697 mmHg 86%
    03:00 +20°C° 0 mm 2 mps 697 mmHg 86%
    04:00 +20°C° 0 mm 2 mps 697 mmHg 85%
    05:00 +20°C° 0 mm 2 mps 697 mmHg 82%
    06:00 +20°C° 0 mm 2 mps 697 mmHg 79%
    07:00 +21°C° 0 mm 2 mps 697 mmHg 76%
    08:00 +23°C° 0 mm 2 mps 697 mmHg 70%
    09:00 +25°C° 0 mm 2 mps 697 mmHg 64%
    10:00 +26°C° 0 mm 2 mps 697 mmHg 59%
    11:00 +27°C° 0 mm 2 mps 697 mmHg 56%
    12:00 +28°C° 0 mm 2 mps 697 mmHg 53%
    13:00 +28°C° 0 mm 3 mps 696 mmHg 51%
    14:00 +28°C° 0.4 mm 2 mps 696 mmHg 52%
    15:00 +28°C° 0.4 mm 2 mps 696 mmHg 53%
    16:00 +28°C° 0.4 mm 2 mps 696 mmHg 54%
    17:00 +27°C° 1.4 mm 2 mps 696 mmHg 61%
    18:00 +26°C° 1.4 mm 2 mps 697 mmHg 67%
    19:00 +24°C° 1.4 mm 2 mps 697 mmHg 74%
    20:00 +24°C° 1.5 mm 2 mps 697 mmHg 76%
    21:00 +23°C° 1.5 mm 2 mps 697 mmHg 77%
    22:00 +23°C° 1.5 mm 2 mps 697 mmHg 79%
    23:00 +21°C° 0.2 mm 3 mps 697 mmHg 79%

    2 April, Sunday

    Time Temperature Precipitation Wind Pressure Humidity
    00:00 +21°C° 0.2 mm 3 mps 696 mmHg 79%
    01:00 +21°C° 0.2 mm 4 mps 696 mmHg 79%
    02:00 +20°C° 0.1 mm 4 mps 696 mmHg 78%
    03:00 +20°C° 0.1 mm 4 mps 696 mmHg 76%
    04:00 +19°C° 0.1 mm 4 mps 696 mmHg 75%
    05:00 +20°C° 0.1 mm 4 mps 696 mmHg 74%
    06:00 +20°C° 0.1 mm 4 mps 696 mmHg 73%
    07:00 +20°C° 0.1 mm 4 mps 697 mmHg 71%
    08:00 +21°C° 0 mm 4 mps 696 mmHg 69%
    09:00 +22°C° 0 mm 4 mps 696 mmHg 66%
    10:00 +23°C° 0 mm 5 mps 696 mmHg 64%
    11:00 +25°C° 0 mm 5 mps 696 mmHg 60%
    12:00 +25°C° 0 mm 5 mps 696 mmHg 57%
    13:00 +26°C° 0 mm 5 mps 696 mmHg 54%
    14:00 +26°C° 0 mm 5 mps 696 mmHg 56%
    15:00 +26°C° 0 mm 5 mps 696 mmHg 58%
    16:00 +25°C° 0 mm 5 mps 696 mmHg 60%
    17:00 +23°C° 0.2 mm 5 mps 697 mmHg 65%
    18:00 +22°C° 0.2 mm 4 mps 698 mmHg 70%
    19:00 +21°C° 0.2 mm 3 mps 699 mmHg 75%
    20:00 +21°C° 0.3 mm 3 mps 699 mmHg 76%
    21:00 +20°C° 0.3 mm 3 mps 699 mmHg 77%
    22:00 +20°C° 0.3 mm 3 mps 700 mmHg 78%
    23:00 +19°C° 0.1 mm 3 mps 699 mmHg 78%
    Show more